Simultaneous Nadir Overpasses (SNOs) Predictions

Prediction of SNOs between NOAA-19 and TERRA Satellite Orbit:

Table of predicted SNOs for the next 14.0 days since TLE Epoch: 8/19/2023
Index Date (NOAA-19) Time (NOAA-19) Lat,Lon (NOAA-19) SZA (NOAA-19 ) Date (TERRA) Time (TERRA) Lat,Lon (TERRA) SZA (TERRA ) Distance(km) Time Diff (sec)
1 08/20/2023 21:28:17 -80.84, 69.96 110.13 08/20/2023 21:27:58 -80.84, 69.93 110.15 1.25 19
2 08/23/2023 00:27:45 -80.83, 24.54 109.47 08/23/2023 00:28:50 -80.83, 24.63 109.44 1.56 65
3 08/23/2023 01:18:40 80.84,-167.79 70.59 08/23/2023 01:18:12 80.84,-167.61 70.59 3.15 28
4 08/25/2023 04:18:07 80.83, 146.92 71.28 08/25/2023 04:19:04 80.82, 146.97 71.30 1.00 57
5 08/25/2023 05:09:08 -80.85, -45.01 108.63 08/25/2023 05:08:25 -80.85, -45.04 108.64 0.72 43
6 08/27/2023 08:08:36 -80.83, -90.56 107.95 08/27/2023 08:09:17 -80.83, -90.57 107.94 0.36 41
7 08/27/2023 08:59:30 80.84, 77.14 72.11 08/27/2023 08:58:39 80.83, 77.17 72.09 0.82 51
8 08/29/2023 11:58:57 80.82, 31.75 72.81 08/29/2023 11:59:30 80.83, 31.85 72.83 1.78 33
9 08/29/2023 12:49:59 -80.84,-160.24 107.10 08/29/2023 12:48:51 -80.86,-160.14 107.11 2.13 68
10 08/31/2023 15:49:26 -80.83, 154.45 106.38 08/31/2023 15:49:42 -80.84, 154.43 106.37 1.06 16



Historial Predications of SNOs between NOAA-19 and TERRA
